Kirksville, MO

11:41 PM CST on February 27, 2017 (GMT -0600)
Kirksville Regional

Weather History for KIRK - February, 2013

Change the Weather History Date:

Friday, February 22, 2013

  Actual Average Record
Temperature  
Mean Temperature 23 °F 32 °F  
Max Temperature 28 °F 41 °F 75 °F (2017)
Min Temperature 17 °F 23 °F -1 °F (1929)
Degree Days  
Heating Degree Days 42 33  
Month to date heating degree days 775 794  
Since 1 July heating degree days 4151 4341  
Cooling Degree Days 0 0  
Month to date cooling degree days 0 0  
Year to date cooling degree days 0 0  
Moisture  
Dew Point 20 °F    
Average Humidity 82    
Maximum Humidity 100    
Minimum Humidity 63    
Precipitation  
Precipitation T in 0.06 in 1.20 in (1985)
Month to date precipitation 2.15 1.19  
Year to date precipitation 4.25 2.46  
Sea Level Pressure  
Sea Level Pressure 29.90 in    
Wind  
Wind Speed 9 mph (WSW)    
Max Wind Speed 17 mph    
Max Gust Speed 25 mph    
Visibility 8 miles    
Events Snow    
T = Trace of Precipitation, MM = Missing Value Source: NWS Daily Summary

Daily Weather History Graph

Daily Weather History Graph

Search for Another Location

Airport or City:

Trip Planner

Search our weather history database for the weather conditions in past years. The results will help you decide how hot, cold, wet, or windy it might be!

Date:

Astronomy

Feb. 22, 2013 Rise Set
Actual Time 6:53 AM CST 5:54 PM CST
Civil Twilight 6:25 AM CST 6:21 PM CST
Nautical Twilight 5:54 AM CST 6:53 PM CST
Astronomical Twilight 5:23 AM CST 7:24 PM CST
Moon 3:06 PM CST (2/22) 4:38 AM CST (2/22)
Length of Visible Light 11h 55m
Length of Day
11h 01m
Waxing Gibbous, 90% of the Moon is Illuminated
Feb 22
Waxing Gibbous
Feb 25
Full
Mar 4
Last Quarter
Mar 11
New
Mar 19
First Quarter

Hourly Weather History & Observations

Time (CST) Temp. Windchill Dew Point Humidity Pressure Visibility Wind Dir Wind Speed Gust Speed Precip Events Conditions
12:03 AM 26.6 °F 20.0 °F 24.8 °F 93% 29.77 in 2.5 mi ESE 5.8 mph - 0.00 in Snow Light Snow
12:39 AM 26.6 °F 21.2 °F 24.8 °F 93% 29.77 in 2.5 mi ESE 4.6 mph - 0.00 in Snow Light Snow
12:55 AM 26.1 °F 19.4 °F 25.0 °F 96% 29.81 in 2.5 mi SE 5.8 mph - 0.00 in Snow Light Snow
1:11 AM 26.6 °F 20.0 °F 24.8 °F 93% 29.76 in 3.0 mi SE 5.8 mph - 0.00 in   Overcast
1:32 AM 26.6 °F 19.1 °F 24.8 °F 93% 29.76 in 2.5 mi SE 6.9 mph - 0.00 in   Overcast
1:55 AM 27.0 °F 19.5 °F 26.1 °F 96% 29.81 in 2.0 mi SSE 6.9 mph - 0.00 in   Overcast
2:06 AM 26.6 °F 19.1 °F 26.6 °F 100% 29.76 in 2.5 mi SSE 6.9 mph - N/A   Overcast
2:40 AM 26.6 °F 20.0 °F 26.6 °F 100% 29.75 in 4.0 mi South 5.8 mph - 0.00 in   Overcast
2:55 AM 27.0 °F 20.5 °F 26.1 °F 96% 29.80 in 6.0 mi SSW 5.8 mph - 0.00 in   Overcast
3:55 AM 27.0 °F 20.5 °F 26.1 °F 96% 29.78 in 4.0 mi SW 5.8 mph - N/A   Overcast
4:52 AM 26.6 °F 19.1 °F 24.8 °F 93% 29.76 in 6.0 mi WSW 6.9 mph - 0.00 in Snow Light Snow
4:55 AM 27.0 °F 18.0 °F 25.0 °F 92% 29.81 in 5.0 mi West 9.2 mph - 0.00 in Snow Light Snow
5:26 AM 26.6 °F 14.7 °F 23.0 °F 86% 29.77 in 7.0 mi West 15.0 mph 20.7 mph 0.00 in   Overcast
5:55 AM 26.1 °F 15.6 °F 23.0 °F 88% 29.83 in 8.0 mi West 11.5 mph 18.4 mph 0.00 in   Overcast
6:55 AM 25.0 °F 14.2 °F 21.0 °F 85% 29.85 in 10.0 mi West 11.5 mph - N/A   Overcast
7:28 AM 24.8 °F 16.9 °F 21.2 °F 86% 29.81 in 10.0 mi West 6.9 mph - N/A   Overcast
7:55 AM 25.0 °F 17.1 °F 21.0 °F 85% 29.88 in 10.0 mi West 6.9 mph - N/A   Overcast
8:04 AM 24.8 °F 14.6 °F 21.2 °F 86% 29.84 in 10.0 mi WSW 10.4 mph - N/A   Overcast
8:15 AM 24.8 °F 16.1 °F 21.2 °F 86% 29.85 in 10.0 mi WSW 8.1 mph - N/A   Overcast
8:55 AM 25.0 °F 16.3 °F 19.9 °F 81% 29.91 in 10.0 mi SW 8.1 mph - N/A   Overcast
9:14 AM 26.6 °F 14.7 °F 19.4 °F 74% 29.87 in 10.0 mi West 15.0 mph 20.7 mph N/A   Overcast
9:55 AM 25.0 °F 13.6 °F 19.9 °F 81% 29.94 in 10.0 mi West 12.7 mph 20.7 mph N/A   Overcast
10:55 AM 24.1 °F 13.7 °F 19.0 °F 81% 29.96 in 8.0 mi West 10.4 mph 19.6 mph N/A   Overcast
11:55 AM 26.1 °F 16.8 °F 19.0 °F 75% 29.97 in 10.0 mi West 9.2 mph - N/A   Overcast
12:55 PM 27.0 °F 16.1 °F 19.0 °F 72% 29.97 in 10.0 mi WSW 12.7 mph 18.4 mph N/A   Overcast
1:55 PM 27.0 °F 15.6 °F 19.0 °F 72% 29.98 in 10.0 mi WSW 13.8 mph - N/A   Overcast
2:55 PM 28.0 °F 19.3 °F 19.0 °F 69% 29.98 in 10.0 mi West 9.2 mph - N/A   Overcast
3:55 PM 28.0 °F 18.1 °F 18.0 °F 66% 29.99 in 10.0 mi WSW 11.5 mph - N/A   Overcast
4:55 PM 26.1 °F 15.0 °F 17.1 °F 69% 30.01 in 10.0 mi West 12.7 mph 19.6 mph N/A   Overcast
5:55 PM 26.1 °F 15.0 °F 17.1 °F 69% 30.03 in 10.0 mi West 12.7 mph 17.3 mph N/A   Overcast
6:55 PM 24.1 °F 15.2 °F 16.0 °F 71% 30.05 in 10.0 mi West 8.1 mph - N/A   Mostly Cloudy
7:55 PM 23.0 °F 13.1 °F 16.0 °F 74% 30.06 in 10.0 mi West 9.2 mph - N/A   Overcast
8:55 PM 21.9 °F 12.5 °F 15.1 °F 75% 30.07 in 10.0 mi West 8.1 mph - N/A   Overcast
9:46 PM 19.4 °F 10.4 °F 14.0 °F 80% 30.02 in 10.0 mi West 6.9 mph - N/A   Scattered Clouds
9:55 PM 19.9 °F 13.4 °F 14.0 °F 78% 30.07 in 10.0 mi West 4.6 mph - N/A   Partly Cloudy
10:34 PM 19.4 °F 12.8 °F 14.0 °F 80% 30.03 in 10.0 mi West 4.6 mph - N/A   Mostly Cloudy
10:55 PM 19.0 °F 12.3 °F 12.9 °F 77% 30.07 in 10.0 mi West 4.6 mph - N/A   Overcast
11:13 PM 19.4 °F 11.5 °F 12.2 °F 74% 30.02 in 10.0 mi West 5.8 mph - N/A   Scattered Clouds
11:55 PM 17.1 °F 8.7 °F 12.9 °F 84% 30.07 in 9.0 mi West 5.8 mph - N/A   Partly Cloudy